| time (UTC) | temp F | wind direction | speed MPH | gust MPH | rain 1hr in | rain 24hr in | rain mn in | humidity % | barometer mb |
| 20260504050017 | 51 | 355 | 0.0 | 0.0 | 0.00 | 0.00 | 0.06 | 93 | 1005.6 |
| 20260504044515 | 51 | 355 | 0.0 | 0.0 | 0.00 | 0.00 | 0.06 | 93 | 1005.3 |
| 20260504043015 | 51 | 355 | 0.0 | 0.0 | 0.00 | 0.00 | 0.06 | 93 | 1005.2 |
| 20260504041514 | 51 | 360 | 0.0 | 0.0 | 0.00 | 0.00 | 0.06 | 93 | 1005.1 |
| 20260504040013 | 52 | 322 | 0.0 | 0.0 | 0.00 | 0.00 | 0.06 | 93 | 1005.1 |
| 20260504034510 | 53 | 355 | 0.0 | 0.0 | 0.00 | 0.00 | 0.06 | 93 | 1005.0 |
| 20260504033009 | 54 | 236 | 0.0 | 0.0 | 0.00 | 0.00 | 0.06 | 93 | 1005.0 |
| 20260504031509 | 54 | 248 | 2.0 | 0.0 | 0.00 | 0.00 | 0.06 | 93 | 1005.1 |
| 20260504030007 | 54 | 228 | 4.0 | 0.0 | 0.00 | 0.00 | 0.06 | 93 | 1005.0 |
| 20260504024505 | 54 | 242 | 2.0 | 0.0 | 0.00 | 0.00 | 0.06 | 94 | 1005.0 |
| 20260504023005 | 53 | 228 | 2.0 | 0.0 | 0.00 | 0.00 | 0.06 | 93 | 1005.1 |
| 20260504021504 | 53 | 265 | 0.0 | 0.0 | 0.00 | 0.00 | 0.06 | 93 | 1005.1 |
| 20260504020004 | 53 | 265 | 0.0 | 0.0 | 0.00 | 0.00 | 0.06 | 93 | 1005.2 |
| 20260504014505 | 53 | 265 | 0.0 | 0.0 | 0.00 | 0.00 | 0.06 | 93 | 1005.0 |
| 20260504013001 | 53 | 265 | 0.0 | 0.0 | 0.00 | 0.00 | 0.06 | 93 | 1005.1 |
| 20260504011501 | 53 | 265 | 0.0 | 0.0 | 0.00 | 0.00 | 0.06 | 93 | 1005.2 |
| 20260504010125 | 53 | 265 | 0.0 | 0.0 | 0.00 | 0.00 | 0.06 | 93 | 1005.2 |
| 20260504004600 | 53 | 265 | 0.0 | 0.0 | 0.00 | 0.00 | 0.06 | 93 | 1005.4 |
| 20260504003058 | 53 | 265 | 0.0 | 0.0 | 0.00 | 0.00 | 0.05 | 93 | 1005.2 |
| 20260504001611 | 53 | 265 | 0.0 | 0.0 | 0.00 | 0.00 | 0.05 | 92 | 1005.4 |
| 20260504000105 | 54 | 265 | 0.0 | 0.0 | 0.00 | 0.00 | 0.05 | 93 | 1005.4 |
| 20260503234553 | 54 | 265 | 0.0 | 0.0 | 0.00 | 0.00 | 0.05 | 92 | 1005.6 |
| 20260503233050 | 54 | 265 | 0.0 | 0.0 | 0.00 | 0.00 | 0.04 | 92 | 1005.8 |
| 20260503231553 | 54 | 265 | 0.0 | 0.0 | 0.00 | 0.00 | 0.04 | 92 | 1006.0 |
| 20260503230048 | 54 | 265 | 0.0 | 0.0 | 0.00 | 0.00 | 0.03 | 92 | 1006.2 |
| 20260503224549 | 54 | 265 | 0.0 | 0.0 | 0.00 | 0.00 | 0.02 | 92 | 1006.4 |
| 20260503223044 | 54 | 228 | 0.0 | 0.0 | 0.00 | 0.00 | 0.02 | 92 | 1006.4 |
| 20260503221543 | 54 | 228 | 0.0 | 0.0 | 0.00 | 0.00 | 0.01 | 91 | 1006.4 |
| 20260503220041 | 53 | 228 | 0.0 | 0.0 | 0.00 | 0.00 | 0.00 | 91 | 1006.5 |
| 20260503214548 | 53 | 228 | 0.0 | 0.0 | 0.00 | 0.00 | 0.17 | 91 | 1006.8 |
| 20260503213102 | 53 | 227 | 0.0 | 0.0 | 0.00 | 0.00 | 0.16 | 91 | 1006.9 |
| 20260503211600 | 53 | 227 | 0.0 | 0.0 | 0.00 | 0.00 | 0.13 | 90 | 1006.9 |
| 20260503210038 | 53 | 227 | 0.0 | 0.0 | 0.00 | 0.00 | 0.11 | 90 | 1006.3 |
| 20260503204552 | 53 | 227 | 0.0 | 0.0 | 0.00 | 0.00 | 0.11 | 89 | 1006.4 |
| 20260503203036 | 53 | 227 | 0.0 | 0.0 | 0.00 | 0.00 | 0.09 | 88 | 1006.8 |
| 20260503201531 | 54 | 227 | 0.0 | 0.0 | 0.00 | 0.00 | 0.07 | 87 | 1007.4 |
| 20260503200032 | 54 | 228 | 0.0 | 0.0 | 0.00 | 0.00 | 0.00 | 85 | 1007.8 |
| 20260503194531 | 54 | 228 | 0.0 | 0.0 | 0.00 | 0.00 | 0.00 | 85 | 1007.5 |
| 20260503193031 | 54 | 228 | 0.0 | 0.0 | 0.00 | 0.00 | 0.00 | 85 | 1007.4 |
| 20260503191530 | 54 | 228 | 0.0 | 0.0 | 0.00 | 0.00 | 0.00 | 84 | 1007.2 |
| 20260503190030 | 54 | 228 | 0.0 | 0.0 | 0.00 | 0.00 | 0.00 | 84 | 1007.4 |
| 20260503184529 | 55 | 228 | 0.0 | 0.0 | 0.00 | 0.00 | 0.00 | 83 | 1007.4 |
| 20260503183037 | 55 | 227 | 0.0 | 0.0 | 0.00 | 0.00 | 0.00 | 82 | 1007.4 |
| 20260503181527 | 56 | 227 | 0.0 | 0.0 | 0.00 | 0.00 | 0.00 | 82 | 1007.5 |
| 20260503180031 | 56 | 228 | 0.0 | 0.0 | 0.00 | 0.00 | 0.00 | 80 | 1007.6 |
| 20260503174533 | 56 | 228 | 0.0 | 0.0 | 0.00 | 0.00 | 0.00 | 78 | 1007.7 |
| 20260503173025 | 57 | 290 | 0.0 | 0.0 | 0.00 | 0.00 | 0.00 | 78 | 1007.5 |
| 20260503171528 | 57 | 259 | 0.0 | 0.0 | 0.00 | 0.00 | 0.00 | 77 | 1007.8 |
| 20260503100106 | 58 | 248 | 0.0 | 0.0 | 0.00 | 0.00 | 0.00 | 79 | 1010.8 |
| 20260503090105 | 58 | 265 | 0.0 | 0.0 | 0.00 | 0.00 | 0.00 | 80 | 1010.8 |
| 20260503081559 | 56 | 337 | 0.0 | 0.0 | 0.00 | 0.00 | 0.00 | 81 | 1010.7 |
| 20260503071608 | 57 | 225 | 0.0 | 0.0 | 0.00 | 0.00 | 0.00 | 82 | 1010.2 |
| 20260503070108 | 56 | 225 | 0.0 | 0.0 | 0.00 | 0.00 | 0.00 | 82 | 1010.3 |